Weather History for KC75 - June, 2013

Change the Weather History Date:

Sunday, June 23, 2013

  Actual Average (KPIA) Record (KPIA)
Temperature  
Mean Temperature 76 °F 74 °F  
Max Temperature 87 °F 84 °F 99 °F (1930)
Min Temperature 66 °F 64 °F 46 °F (1972)
Degree Days  
Heating Degree Days 0 0  
Month to date heating degree days 17  
Since 1 June heating degree days 17  
Since 1 July heating degree days 5830  
Cooling Degree Days 12 9  
Month to date cooling degree days 153  
Year to date cooling degree days 234  
Since 1 June cooling degree days 153  
Growing Degree Days 26 (Base 50)    
Moisture  
Dew Point 68 °F    
Average Humidity 84    
Maximum Humidity 98    
Minimum Humidity 60    
Precipitation  
Precipitation 0.69 in 0.12 in 1.19 in (1898)
Month to date precipitation 2.70  
Year to date precipitation 17.03  
Snow  
Snow 0.00 in 0.00 in 0.00 in ()
Month to date snowfall 0.0  
Since 1 June snowfall 0.0  
Since 1 July snowfall 24.6  
Snow Depth -    
Sea Level Pressure  
Sea Level Pressure 29.99 in    
Wind  
Wind Speed 5 mph (South)    
Max Wind Speed 14 mph    
Max Gust Speed 40 mph    
Visibility 10 miles    
Events Rain , Thunderstorm    
T = Trace of Precipitation, MM = Missing Value Source: NWS Daily Summary

Daily Weather History Graph

Daily Weather History Graph

Search for Another Location

Airport or City:

Trip Planner

Search our weather history database for the weather conditions in past years. The results will help you decide how hot, cold, wet, or windy it might be!

Date:

Astronomy

Jun. 23, 2013 Rise Set
Actual Time 5:26 AM CDT 8:33 PM CDT
Civil Twilight 4:52 AM CDT 9:07 PM CDT
Nautical Twilight 4:09 AM CDT 9:50 PM CDT
Astronomical Twilight 3:18 AM CDT 10:41 PM CDT
Moon 8:45 PM CDT (6/23) 5:44 AM CDT (6/23)
Length of Visible Light 16h 14m
Length of Day
15h 07m
Full, 100% of the Moon is Illuminated
Jun 23
Full
Jun 29
Last Quarter
Jul 8
New
Jul 15
First Quarter
Jul 22
Full

Hourly Weather History & Observations

Time (CDT) Temp. Heat Index Dew Point Humidity Pressure Visibility Wind Dir Wind Speed Gust Speed Precip Events Conditions
12:15 AM 68.5 °F - 63.5 °F 84% 30.02 in 10.0 mi Calm Calm - N/A   Clear
12:35 AM 68.4 °F - 63.5 °F 84% 30.01 in 10.0 mi SE 3.5 mph - N/A   Clear
12:55 AM 68.4 °F - 63.5 °F 84% 30.01 in 10.0 mi SE 8.1 mph - N/A   Clear
1:15 AM 67.1 °F - 63.7 °F 89% 30.02 in 10.0 mi SSE 4.6 mph - N/A   Clear
1:35 AM 66.6 °F - 63.5 °F 90% 30.02 in 10.0 mi SSE 4.6 mph - N/A   Clear
1:55 AM 66.6 °F - 63.5 °F 90% 30.02 in 10.0 mi South 3.5 mph - N/A   Clear
2:15 AM 66.7 °F - 63.7 °F 90% 30.02 in 10.0 mi Calm Calm - N/A   Clear
2:35 AM 67.1 °F - 63.9 °F 89% 30.01 in 10.0 mi SSE 4.6 mph - N/A   Clear
2:55 AM 67.1 °F - 64.0 °F 90% 30.00 in 10.0 mi SSE 5.8 mph - N/A   Clear
3:15 AM 67.1 °F - 64.0 °F 90% 30.00 in 10.0 mi SE 3.5 mph - N/A   Clear
3:35 AM 67.5 °F - 64.0 °F 89% 29.98 in 10.0 mi SE 4.6 mph - N/A   Clear
3:55 AM 67.3 °F - 64.2 °F 90% 30.00 in 10.0 mi SSE 6.9 mph - N/A   Clear
4:15 AM 67.5 °F - 64.4 °F 90% 30.00 in 10.0 mi South 6.9 mph - N/A   Clear
4:35 AM 67.6 °F - 64.4 °F 89% 30.01 in 10.0 mi South 3.5 mph - N/A   Clear
4:55 AM 67.3 °F - 64.6 °F 91% 30.04 in 10.0 mi Calm Calm - N/A   Clear
5:15 AM 67.1 °F - 64.4 °F 91% 30.03 in 10.0 mi SE 5.8 mph - N/A   Clear
5:35 AM 66.9 °F - 64.6 °F 92% 30.04 in 10.0 mi Calm Calm - N/A   Clear
5:55 AM 66.4 °F - 64.8 °F 95% 30.03 in 10.0 mi SE 3.5 mph - N/A   Clear
6:15 AM 66.9 °F - 64.8 °F 93% 30.02 in 10.0 mi South 8.1 mph - N/A   Clear
6:35 AM 67.6 °F - 64.8 °F 90% 30.02 in 10.0 mi South 5.8 mph - N/A   Clear
6:55 AM 68.5 °F - 65.1 °F 89% 30.03 in 10.0 mi SSE 6.9 mph - N/A   Clear
7:15 AM 68.9 °F - 65.1 °F 88% 30.02 in 10.0 mi SSE 3.5 mph - N/A   Clear
7:35 AM 70.7 °F - 65.8 °F 85% 30.02 in 10.0 mi South 4.6 mph - N/A   Clear
7:55 AM 71.8 °F - 65.7 °F 81% 30.01 in 10.0 mi South 6.9 mph - N/A   Clear
8:15 AM 73.2 °F - 66.7 °F 80% 30.01 in 10.0 mi SSW 8.1 mph - N/A   Clear
8:35 AM 74.3 °F - 66.7 °F 77% 30.00 in 10.0 mi South 6.9 mph - N/A   Clear
8:55 AM 75.2 °F - 66.9 °F 75% 29.99 in 10.0 mi South 8.1 mph - N/A   Clear
9:15 AM 76.3 °F - 67.1 °F 73% 30.00 in 10.0 mi SSW 10.4 mph - N/A   Clear
9:35 AM 76.5 °F - 67.3 °F 73% 30.01 in 10.0 mi SSW 10.4 mph 16.1 mph N/A   Clear
9:55 AM 77.5 °F - 67.6 °F 71% 30.01 in 10.0 mi SSW 9.2 mph - N/A   Clear
10:15 AM 78.3 °F - 68.4 °F 71% 30.01 in 10.0 mi SW 8.1 mph - N/A   Clear
10:35 AM 79.0 °F - 68.4 °F 70% 30.02 in 10.0 mi SW 13.8 mph 19.6 mph N/A   Clear
10:55 AM 79.0 °F - 69.1 °F 72% 30.02 in 10.0 mi SW 12.7 mph - N/A   Clear
11:15 AM 79.7 °F - 69.1 °F 70% 30.01 in 10.0 mi South 11.5 mph 17.3 mph N/A   Clear
11:35 AM 80.8 °F 84.2 °F 70.2 °F 70% 30.02 in 10.0 mi SW 10.4 mph 16.1 mph N/A   Clear
11:55 AM 81.7 °F 85.8 °F 70.9 °F 70% 30.02 in 10.0 mi SSW 10.4 mph 16.1 mph N/A   Clear
12:15 PM 81.5 °F 85.5 °F 70.9 °F 70% 30.02 in 10.0 mi SSW 9.2 mph - N/A   Clear
12:35 PM 83.3 °F 88.7 °F 72.1 °F 69% 30.01 in 10.0 mi SW 11.5 mph - N/A   Clear
12:55 PM 84.0 °F 89.3 °F 71.8 °F 66% 30.00 in 10.0 mi SW 11.5 mph - N/A   Clear
1:15 PM 84.4 °F 90.3 °F 72.1 °F 67% 30.00 in 10.0 mi South 12.7 mph 17.3 mph N/A   Clear
1:35 PM 84.4 °F 90.3 °F 72.1 °F 67% 29.98 in 10.0 mi South 9.2 mph - N/A   Clear
1:55 PM 85.1 °F 91.1 °F 72.0 °F 65% 29.98 in 10.0 mi South 11.5 mph - N/A   Clear
2:15 PM 86.0 °F 93.0 °F 73.0 °F 65% 29.95 in 10.0 mi SSW 11.5 mph 16.1 mph N/A   Clear
2:35 PM 86.0 °F 91.8 °F 71.8 °F 62% 29.95 in 10.0 mi SSW 10.4 mph 16.1 mph N/A   Clear
2:55 PM 86.9 °F 93.7 °F 72.3 °F 62% 29.95 in 10.0 mi South 10.4 mph - N/A   Clear
3:15 PM 87.1 °F 93.2 °F 71.8 °F 60% 29.96 in 10.0 mi SW 9.2 mph - N/A   Scattered Clouds
3:35 PM 84.6 °F 89.1 °F 70.3 °F 62% 29.94 in 10.0 mi WSW 8.1 mph - N/A Thunderstorm Thunderstorm
4:15 PM 68.5 °F - 66.4 °F 93% - 0.2 mi ESE 8.1 mph 40.3 mph 0.65 in Rain , Thunderstorm Light Thunderstorms and Rain
4:35 PM 68.9 °F - 66.7 °F 93% 29.96 in 10.0 mi SSE 8.1 mph - 0.67 in Rain , Thunderstorm Rain
4:55 PM 68.9 °F - 66.9 °F 93% 29.94 in 10.0 mi South 10.4 mph - 0.68 in Rain Light Rain
5:15 PM 69.6 °F - 66.6 °F 90% 29.92 in 10.0 mi SE 11.5 mph - N/A   Scattered Clouds
5:35 PM 70.7 °F - 67.6 °F 90% 29.95 in 10.0 mi NW 3.5 mph - N/A Rain Light Rain
5:55 PM 71.1 °F - 68.0 °F 90% 29.96 in 10.0 mi SSE 5.8 mph - 0.01 in Rain Light Rain
6:15 PM 71.6 °F - 68.9 °F 91% 29.95 in 10.0 mi SE 4.6 mph - N/A   Light Drizzle
6:35 PM 73.2 °F - 70.2 °F 90% 29.93 in 10.0 mi SE 8.1 mph - N/A   Clear
6:55 PM 73.8 °F - 70.7 °F 90% 29.95 in 10.0 mi Calm Calm - N/A   Clear
7:15 PM 74.3 °F - 71.2 °F 90% 29.95 in 10.0 mi Calm Calm - N/A   Clear
7:35 PM 74.3 °F - 71.4 °F 91% 29.95 in 10.0 mi Calm Calm - N/A   Clear
7:55 PM 73.4 °F - 71.6 °F 94% 29.96 in 7.0 mi North 3.5 mph - N/A   Clear
8:15 PM 72.9 °F - 71.4 °F 95% 29.96 in 7.0 mi Calm Calm - N/A   Clear
8:35 PM 72.7 °F - 71.6 °F 96% 29.98 in 7.0 mi Calm Calm - N/A   Clear
8:55 PM 71.6 °F - 70.9 °F 98% 29.98 in 5.0 mi South 3.5 mph - N/A   Clear
9:15 PM 71.4 °F - 70.9 °F 98% 29.99 in 5.0 mi Calm Calm - N/A   Clear
9:35 PM 71.6 °F - 70.0 °F 95% 30.00 in 10.0 mi South 4.6 mph - N/A   Clear
9:55 PM 71.6 °F - 69.6 °F 93% 30.01 in 10.0 mi Calm Calm - N/A   Clear
10:15 PM 71.1 °F - 68.7 °F 92% 30.00 in 10.0 mi SSE 3.5 mph - N/A   Clear
10:35 PM 70.5 °F - 68.2 °F 92% 30.00 in 10.0 mi Calm Calm - N/A   Clear
10:55 PM 69.3 °F - 67.6 °F 95% 30.01 in 10.0 mi Calm Calm - N/A   Clear
11:15 PM 69.8 °F - 67.6 °F 93% 30.01 in 10.0 mi Calm Calm - N/A   Clear
11:35 PM 68.9 °F - 67.1 °F 94% 30.01 in 10.0 mi South 3.5 mph - N/A   Clear
11:55 PM 70.2 °F - 66.2 °F 87% 30.00 in 10.0 mi SSE 3.5 mph - N/A   Clear